FW9465 Weather Reports


Display with metric or nautical units.
time (UTC)temp
F
wind
direction
speed
MPH
gust
MPH
rain 1hr
in
rain 24hr
in
rain mn
in
humidity
%
barometer
mb
20260503040925 61 190 3.0 5.0 0.00 0.00 0.00 60 1020.0
20260503035940 61 200 3.0 6.0 0.00 0.00 0.00 63 1020.0
20260503035026 61 202 2.0 4.0 0.00 0.00 0.00 64 1020.0
20260503034027 61 200 3.0 4.0 0.00 0.00 0.00 63 1020.1
20260503033124 61 202 2.0 3.0 0.00 0.00 0.00 63 1020.0
20260503032127 62 180 1.0 3.0 0.00 0.00 0.00 62 1019.9
20260503031224 62 164 0.0 2.0 0.00 0.00 0.00 61 1020.0
20260503030226 63 187 2.0 3.0 0.00 0.00 0.00 60 1019.8
20260503025224 63 200 2.0 4.0 0.00 0.00 0.00 59 1019.8
20260503024225 64 202 2.0 4.0 0.00 0.00 0.00 59 1019.7
20260503023227 64 200 2.0 3.0 0.00 0.00 0.00 58 1019.6
20260503022225 65 193 1.0 3.0 0.00 0.00 0.00 58 1019.3
20260503021225 66 157 1.0 3.0 0.00 0.00 0.00 57 1019.5
20260503020241 67 180 0.0 2.0 0.00 0.00 0.00 54 1019.3
20260503015324 67 180 1.0 2.0 0.00 0.00 0.00 53 1019.2
20260503014342 68 180 1.0 2.0 0.00 0.00 0.00 51 1019.1
20260503013425 70 195 1.0 3.0 0.00 0.00 0.00 48 1019.1
20260503012424 71 180 0.0 1.0 0.00 0.00 0.00 47 1019.0
20260503011441 74 180 1.0 2.0 0.00 0.00 0.00 43 1019.0
20260503010425 76 202 1.0 3.0 0.00 0.00 0.00 42 1018.9
20260503005440 78 157 0.0 0.0 0.00 0.00 0.00 42 1019.0
20260503004523 79 157 0.0 0.0 0.00 0.00 0.00 38 1018.9
20260503003524 79 157 0.0 0.0 0.00 0.00 0.00 36 1018.9
20260503002623 80 157 0.0 0.0 0.00 0.00 0.00 35 1018.8
20260503001640 80 157 0.0 0.0 0.00 0.00 0.00 33 1018.9
20260503000643 81 157 0.0 0.0 0.00 0.00 0.00 33 1018.7
20260502235625 80 180 0.0 0.0 0.00 0.00 0.00 34 1018.8
20260502234623 79 225 0.0 0.0 0.00 0.00 0.00 34 1018.9
20260502233625 77 347 0.0 0.0 0.00 0.00 0.00 36 1018.9
20260502232625 77 337 2.0 4.0 0.00 0.00 0.00 34 1018.9
20260502231723 78 35 3.0 4.0 0.00 0.00 0.00 35 1018.9
20260502230723 78 45 1.0 3.0 0.00 0.00 0.00 34 1018.9
20260502225724 78 337 2.0 4.0 0.00 0.00 0.00 35 1018.9
20260502224724 77 337 0.0 0.0 0.00 0.00 0.00 37 1018.9
20260502221925 77 22 1.0 5.0 0.00 0.00 0.00 35 1019.0
20260502220926 78 22 5.0 8.0 0.00 0.00 0.00 35 1019.1
20260502215922 76 287 3.0 5.0 0.00 0.00 0.00 36 1019.2
20260502215825 76 290 1.0 2.0 0.00 0.00 0.00 35 1019.1
20260502214825 77 314 3.0 6.0 0.00 0.00 0.00 35 1019.1
20260502212823 77 268 2.0 5.0 0.00 0.00 0.00 34 1019.4
20260502211824 75 288 3.0 5.0 0.00 0.00 0.00 35 1019.6
20260502210824 75 56 5.0 7.0 0.00 0.00 0.00 37 1019.8
20260502203824 75 313 4.0 7.0 0.00 0.00 0.00 36 1020.1
20260502202841 75 335 0.0 0.0 0.00 0.00 0.00 36 1020.2
20260502201924 75 38 1.0 2.0 0.00 0.00 0.00 35 1020.4
20260502200923 75 348 3.0 6.0 0.00 0.00 0.00 35 1020.4
20260502195924 75 10 6.0 10.0 0.00 0.00 0.00 35 1020.6
20260502194923 75 48 4.0 7.0 0.00 0.00 0.00 34 1020.5
20260502193924 73 286 0.0 2.0 0.00 0.00 0.00 35 1020.8
20260502192923 74 315 6.0 8.0 0.00 0.00 0.00 36 1020.8
20260502191941 74 330 7.0 10.0 0.00 0.00 0.00 37 1020.7
20260502190925 74 2 0.0 1.0 0.00 0.00 0.00 36 1020.9
20260502185925 73 14 3.0 7.0 0.00 0.00 0.00 37 1020.9
20260502184924 73 265 4.0 7.0 0.00 0.00 0.00 37 1021.1
20260502183924 73 337 0.0 2.0 0.00 0.00 0.00 36 1021.2
20260502182924 73 297 5.0 9.0 0.00 0.00 0.00 38 1021.5
20260502181925 72 257 4.0 7.0 0.00 0.00 0.00 37 1021.5
20260502180923 72 319 2.0 4.0 0.00 0.00 0.00 39 1021.7
20260502170123 72 337 1.0 3.0 0.00 0.00 0.00 39 1022.5
20260502164125 71 336 4.0 7.0 0.00 0.00 0.00 39 1022.5
20260502163222 71 123 0.0 4.0 0.00 0.00 0.00 41 1022.4
20260502162224 70 325 1.0 3.0 0.00 0.00 0.00 43 1022.4
20260502161223 69 323 0.0 2.0 0.00 0.00 0.00 46 1022.4
20260502160226 68 353 1.0 4.0 0.00 0.00 0.00 51 1022.3
20260502152323 66 321 4.0 6.0 0.00 0.00 0.00 57 1022.4
20260502151325 65 316 3.0 5.0 0.00 0.00 0.00 58 1022.4
20260502130740 55 278 4.0 7.0 0.00 0.00 0.00 81 1021.6
20260502122838 52 273 5.0 6.0 0.00 0.00 0.00 85 1021.2
20260502121922 52 291 3.0 4.0 0.00 0.00 0.00 84 1021.0
20260502120941 52 270 6.0 7.0 0.00 0.00 0.00 84 1021.1
20260502114925 52 270 6.0 8.0 0.00 0.00 0.00 83 1020.3
20260502112123 51 273 4.0 6.0 0.00 0.00 0.00 83 1019.8
20260502110224 51 270 4.0 6.0 0.00 0.00 0.00 83 1019.7
20260502105223 51 286 4.0 5.0 0.00 0.00 0.00 83 1019.5
20260502104223 51 288 3.0 5.0 0.00 0.00 0.00 85 1019.4
20260502103322 51 270 3.0 4.0 0.00 0.00 0.00 84 1019.3
20260502101521 50 270 5.0 7.0 0.00 0.00 0.00 85 1019.3
20260502100524 51 292 2.0 4.0 0.00 0.00 0.00 83 1019.3
20260502090622 51 292 2.0 2.0 0.00 0.00 0.00 81 1019.0
20260502070822 51 202 0.0 0.0 0.00 0.00 0.00 84 1019.5
20260502065823 51 202 0.0 0.0 0.00 0.00 0.00 84 1019.5
20260502063825 51 202 0.0 0.0 0.00 0.00 0.00 82 1019.3
20260502062822 51 202 0.0 0.0 0.00 0.00 0.00 81 1019.2
20260502060837 52 202 0.0 1.0 0.00 0.00 0.00 79 1019.3
20260502055821 53 157 0.0 0.0 0.00 0.00 0.00 78 1019.5
20260502054823 53 157 0.0 0.0 0.00 0.00 0.00 78 1019.6
20260502053824 53 157 0.0 0.0 0.00 0.00 0.00 80 1019.7
20260502052823 53 157 0.0 0.0 0.00 0.00 0.00 78 1019.7
20260502051823 54 157 0.0 0.0 0.00 0.00 0.00 78 1019.7
20260502050921 54 157 0.0 0.0 0.00 0.00 0.00 79 1019.7
20260502045923 54 157 0.0 0.0 0.00 0.00 0.00 79 1019.5
20260502044940 55 157 0.0 0.0 0.00 0.00 0.00 79 1019.4
20260502043924 55 157 0.0 0.0 0.00 0.00 0.00 78 1019.5
20260502043022 55 157 0.0 0.0 0.00 0.00 0.00 77 1019.5
20260502042041 55 157 0.0 0.0 0.00 0.00 0.00 79 1019.6